Home   Weather   Ried im Innkreis   Past weeks

Flag for Austria Past Weather in Ried im Innkreis, Upper Austria, Austria — Yesterday and Last 2 Weeks

Now
26 °F

Chilly.


Feels Like: 21 °F
Forecast: 24 / 33 °F
Wind: 5 mph from Northeast

Location: Kremsmuenster

Current Time: Dec 4, 2016 at 1:12:01 am

Latest Report: Dec 3, 2016 at 11:00 pm


Visibility: N/A

Pressure: 30.37 "Hg

Humidity: 91%

Dew Point: 24 °F

Location of Ried im InnkreisLocation

Past Weather in Ried im Innkreis — Graph

°F

Ried im Innkreis Temperature Yesterday

Maximum temperature yesterday: 34 °F (at 12:00 am)
Minimum temperature yesterday: 26 °F (at 9:00 am)
Average temperature yesterday: 29 °F

High & Low Weather Summary for the Past Weeks

 TemperatureHumidityPressure
High53 °F (Nov 22, 2:00 pm)99% (Nov 21, 11:00 am)30.61 "Hg (Nov 21, 11:00 am)
Low23 °F (Nov 30, 7:00 am)45% (Dec 1, 7:00 pm)29.78 "Hg (Nov 21, 3:00 pm)
Average38 °F85%30.15 "Hg
* Reported Nov 18 11:00 pm — Dec 3 11:00 pm, Ried im Innkreis, Weather by CustomWeather, © 2016

Note: Actual official high and low records may vary slightly from our data, if they occured in-between our weather recording intervals... More about our weather records

Advertising

Ried im Innkreis Weather History for the Previous 24 Hours

Scroll right to see more
 ConditionsComfort  
Time TempWeatherWind HumidityBarometerVisibility
11:00 pm
Sat, Dec 3
26 °FChilly.5 mph91%30.37 "HgN/A
10:00 pm26 °FChilly.3 mph91%30.37 "HgN/A
9:00 pm27 °FChilly.3 mph92%30.36 "HgN/A
8:00 pm27 °FChilly.3 mph93%30.35 "HgN/A
7:00 pm28 °FFog.2 mph91%30.34 "Hg12 mi
6:00 pm29 °FChilly.3 mph89%30.33 "HgN/A
5:00 pm31 °FChilly.3 mph81%30.32 "HgN/A
4:00 pm31 °FPassing clouds.2 mph83%30.31 "Hg25 mi
3:00 pm32 °FChilly.5 mph93%30.31 "HgN/A
2:00 pm30 °FChilly.2 mph95%30.31 "HgN/A
1:00 pm29 °FChilly.2 mph95%30.32 "HgN/A
12:00 pm27 °FChilly.2 mph96%30.34 "HgN/A
11:00 am27 °FChilly.2 mph96%30.35 "HgN/A
10:00 am27 °FFog.2 mph96%30.34 "Hg0 mi
9:00 am26 °FChilly.2 mph96%30.32 "HgN/A
8:00 am27 °FChilly.1 mph98%30.32 "HgN/A
7:00 am28 °FChilly.2 mph98%30.29 "HgN/A
6:00 am29 °FChilly.1 mph98%30.28 "HgN/A
5:00 am28 °FChilly.1 mph98%30.28 "HgN/A
4:00 am29 °FChilly.1 mph96%30.28 "HgN/A
3:00 am30 °FChilly.1 mph93%30.27 "HgN/A
2:00 am31 °FChilly.1 mph91%30.26 "HgN/A
1:00 am33 °FChilly.2 mph89%30.26 "HgN/A
Weather by CustomWeather, © 2016

See weather overviewHow to use our weather pages